Weather History for Lanseria, South Africa

Change the Weather History Date:

Wednesday, May 1, 2013

  Actual Average Record
Temperature  
Mean Temperature 62 °F -  
Max Temperature 73 °F - - ()
Min Temperature 50 °F - - ()
Degree Days  
Heating Degree Days 4    
Growing Degree Days 12 (Base 50)    
Moisture  
Dew Point 45 °F    
Average Humidity 58    
Maximum Humidity 100    
Minimum Humidity 23    
Precipitation  
Precipitation 0.00 in - - ()
Sea Level Pressure  
Sea Level Pressure 30.46 in    
Wind  
Wind Speed 2 mph ()    
Max Wind Speed 7 mph    
Max Gust Speed -    
T = Trace of Precipitation, MM = Missing Value Source: Averaged Metar Reports

Daily Weather History Graph

Daily Weather History Graph

Search for Another Location

Airport:

Trip Planner

Search our weather history database for the weather conditions in past years. The results will help you decide how hot, cold, wet, or windy it might be!

Date:

Astronomy

May. 01, 2013 Rise Set
Actual Time 6:31 AM SAST 5:38 PM SAST
Civil Twilight 6:07 AM SAST 6:02 PM SAST
Nautical Twilight 5:40 AM SAST 6:29 PM SAST
Astronomical Twilight 5:13 AM SAST 6:57 PM SAST
Moon 11:21 PM SAST (5/1) 11:54 AM SAST (5/1)
Length of Visible Light 11h 54m
Length of Day
11h 07m
Waning Gibbous, 62% of the Moon is Illuminated
May 1
Waning Gibbous
May 2
Last Quarter
May 10
New
May 18
First Quarter
May 25
Full

Hourly Weather History & Observations

Time (SAST) Temp. Dew Point Humidity Pressure Visibility Wind Dir Wind Speed Gust Speed Precip Events Conditions
5:00 AM 50.0 °F 48.2 °F 94% 30.48 in - Calm Calm - N/A   Clear
6:00 AM 50.0 °F 48.2 °F 94% 30.48 in - Calm Calm - N/A   Clear
7:00 AM 50.0 °F 50.0 °F 100% 30.48 in - Calm Calm - N/A   Clear
8:00 AM 51.8 °F 51.8 °F 100% 30.51 in - Calm Calm - N/A   Clear
8:25 AM 57.2 °F 50.0 °F 77% 30.51 in - Calm Calm - N/A   Clear
9:00 AM 59.0 °F 50.0 °F 72% 30.51 in - Calm Calm - N/A   Clear
9:49 AM 62.6 °F 50.0 °F 63% 30.51 in - NNW 3.5 mph - N/A   Clear
10:00 AM 64.4 °F 50.0 °F 59% 30.51 in - NW 3.5 mph - N/A   Clear
10:39 AM 68.0 °F 51.8 °F 56% 30.51 in - Variable 4.6 mph - N/A   Clear
11:00 AM 68.0 °F 51.8 °F 56% 30.51 in - NNW 5.8 mph - N/A   Clear
12:00 PM 69.8 °F 44.6 °F 40% 30.48 in - Variable 4.6 mph - N/A   Clear
1:00 PM 73.4 °F 42.8 °F 33% 30.45 in - ENE 6.9 mph - N/A   Clear
2:00 PM 73.4 °F 41.0 °F 31% 30.42 in - Variable 3.5 mph - N/A   Clear
3:00 PM 73.4 °F 37.4 °F 27% 30.39 in - West 6.9 mph - N/A   Clear
4:00 PM 73.4 °F 33.8 °F 23% 30.39 in - NNW 4.6 mph - N/A   Clear
5:00 PM 73.4 °F 33.8 °F 23% 30.39 in - North 4.6 mph - N/A   Clear
6:00 PM 66.2 °F 42.8 °F 43% 30.39 in - WNW 4.6 mph - N/A   Clear
7:00 PM 62.6 °F 42.8 °F 48% 30.39 in - NNW 3.5 mph - N/A   Clear
8:00 PM 62.6 °F 44.6 °F 52% 30.42 in - Calm Calm - N/A   Clear
9:00 PM 59.0 °F 44.6 °F 59% 30.42 in - Variable 3.5 mph - N/A   Clear
10:00 PM 57.2 °F 44.6 °F 63% 30.42 in - Variable 2.3 mph - N/A   Clear